tarih_saat,PM10 ( µg/m3 ),SO2 ( µg/m3 ),NO2 ( µg/m3 ),NOX ( µg/m3 ),NO ( µg/m3 )
2021-01-01 00:00:56,,,51.97,80.19,28.22
2021-01-01 01:00:56,,,49.32,74.03,24.71
2021-01-01 02:00:56,,,47.79,70.22,22.43
2021-01-01 03:00:56,,,49.01,70.88,21.87
2021-01-01 04:00:56,,,43.7,63.51,19.81
2021-01-01 05:00:56,,,38.35,55.84,17.49
2021-01-01 06:00:56,,,36.61,54.64,18.03
2021-01-01 07:00:56,,,34.78,51.52,16.74
2021-01-01 08:00:56,,,33.99,48.5,14.51
2021-01-01 09:00:56,,,39.43,55.11,15.68
2021-01-01 10:00:56,,,48.5,71.32,22.82
2021-01-01 11:00:56,,,63.01,102.22,39.21
2021-01-01 12:00:56,,,55.97,87.91,31.94
2021-01-01 13:00:56,,,53.85,82.13,28.28
2021-01-01 14:00:56,,,47.69,70.2,22.51
2021-01-01 15:00:56,,,43.7,62.05,18.35
2021-01-01 16:00:56,,,43.0,59.49,16.49
2021-01-01 17:00:56,,,43.99,60.95,16.96
2021-01-01 18:00:56,,,49.4,66.89,17.49
2021-01-01 19:00:56,,,66.33,95.87,29.54
2021-01-01 20:00:56,,,69.48,104.36,34.88
2021-01-01 21:00:56,,,62.16,95.17,33.01
2021-01-01 22:00:56,,,51.42,78.21,26.79
2021-01-01 23:00:56,,,46.89,69.29,22.4
2021-01-02 00:00:56,,,44.75,65.52,20.77
2021-01-02 01:00:56,,,42.11,60.19,18.08
2021-01-02 02:00:56,,,40.8,57.27,16.47
2021-01-02 03:00:56,,,38.88,54.0,15.12
2021-01-02 04:00:56,,,42.61,58.61,16.0
2021-01-02 05:00:56,,,40.66,57.19,16.53
2021-01-02 06:00:56,,,38.9,55.72,16.82
2021-01-02 07:00:56,,,37.57,53.91,16.34
2021-01-02 08:00:56,,,43.05,63.55,20.5
2021-01-02 09:00:56,,,55.28,91.14,35.86
2021-01-02 10:00:56,,,56.25,97.93,41.68
2021-01-02 11:00:56,,,51.42,86.66,35.24
2021-01-02 12:00:56,,,49.94,81.46,31.52
2021-01-02 13:00:56,,,45.45,70.33,24.88
2021-01-02 14:00:56,,,42.59,62.87,20.28
2021-01-02 15:00:56,,,41.93,60.3,18.37
2021-01-02 16:00:56,,,40.83,57.72,16.89
2021-01-02 17:00:56,,,42.09,59.23,17.14
2021-01-02 18:00:56,,,47.53,67.68,20.15
2021-01-02 19:00:56,,,64.6,100.8,36.2
2021-01-02 20:00:56,,,79.09,138.51,59.42
2021-01-02 21:00:56,,,81.74,149.75,68.01
2021-01-02 22:00:56,,,68.0,118.63,50.63
2021-01-02 23:00:56,,,59.84,100.35,40.51
2021-01-03 00:00:56,,,56.11,91.44,35.33
2021-01-03 01:00:56,,,49.1,79.1,30.0
2021-01-03 02:00:56,,,47.79,77.07,29.28
2021-01-03 03:00:56,,,44.99,71.85,26.86
2021-01-03 04:00:56,,,38.42,60.66,22.24
2021-01-03 05:00:56,,,33.8,51.99,18.19
2021-01-03 06:00:56,,,32.06,48.56,16.5
2021-01-03 07:00:56,,,32.99,49.48,16.49
2021-01-03 08:00:56,,,36.07,54.21,18.14
2021-01-03 09:00:56,,,39.89,61.83,21.94
2021-01-03 10:00:56,,,48.36,81.49,33.13
2021-01-03 11:00:56,,,46.25,76.38,30.13
2021-01-03 12:00:56,,,45.27,71.26,25.99
2021-01-03 13:00:56,,,44.79,66.22,21.43
2021-01-03 14:00:56,,,42.4,60.3,17.9
2021-01-03 15:00:56,,,41.02,57.46,16.44
2021-01-03 16:00:56,,,41.05,56.34,15.29
2021-01-03 17:00:56,,,40.4,55.23,14.83
2021-01-03 18:00:56,,,44.48,60.46,15.98
2021-01-03 19:00:56,,,50.21,68.49,18.28
2021-01-03 20:00:56,,,53.47,74.77,21.3
2021-01-03 21:00:56,,,51.95,75.3,23.35
2021-01-03 22:00:56,,,50.66,73.43,22.77
2021-01-03 23:00:56,,,51.85,76.62,24.77
2021-01-04 00:00:56,,,50.37,78.01,27.64
2021-01-04 01:00:56,,,48.65,77.1,28.45
2021-01-04 02:00:56,,,44.7,70.54,25.84
2021-01-04 03:00:56,,,42.99,67.1,24.11
2021-01-04 04:00:56,,,36.31,56.87,20.56
2021-01-04 05:00:56,,,33.14,50.64,17.5
2021-01-04 06:00:56,,,33.81,50.38,16.57
2021-01-04 07:00:56,,,36.62,54.5,17.88
2021-01-04 08:00:56,,,42.28,67.5,25.22
2021-01-04 09:00:56,,,58.1,105.39,47.29
2021-01-04 10:00:56,,,76.05,146.18,70.13
2021-01-04 11:00:56,,,83.71,158.8,75.09
2021-01-04 12:00:56,,,80.89,152.08,71.19
2021-01-04 13:00:56,,,70.37,128.32,57.95
2021-01-04 14:00:56,,,65.37,113.39,48.02
2021-01-04 15:00:56,,,65.67,108.13,42.46
2021-01-04 16:00:56,,,65.93,105.05,39.12
2021-01-04 17:00:56,,,66.96,105.44,38.48
2021-01-04 18:00:56,,,78.23,129.45,51.22
2021-01-04 19:00:56,,,113.42,217.59,104.17
2021-01-04 20:00:56,,,127.66,258.93,131.27
2021-01-04 21:00:56,,,117.18,238.78,121.6
2021-01-04 22:00:56,,,108.87,221.42,112.55
2021-01-04 23:00:56,,,93.15,186.96,93.81
2021-01-05 00:00:56,,,75.55,145.08,69.53
2021-01-05 01:00:56,,,63.94,116.11,52.17
2021-01-05 02:00:56,,,58.97,103.0,44.03
2021-01-05 03:00:56,,,52.65,88.65,36.0
2021-01-05 04:00:56,,,46.64,76.14,29.5
2021-01-05 05:00:56,,,41.14,65.08,23.94
2021-01-05 06:00:56,,,47.65,76.34,28.69
2021-01-05 07:00:56,,,54.4,91.37,36.97
2021-01-05 08:00:56,,,58.87,101.0,42.13
2021-01-05 09:00:56,,,66.43,117.71,51.28
2021-01-05 10:00:56,,,75.23,136.78,61.55
2021-01-05 11:00:56,,,75.12,137.46,62.34
2021-01-05 12:00:56,,,68.05,122.31,54.26
2021-01-05 13:00:56,,,72.34,124.07,51.73
2021-01-05 14:00:56,,,75.75,130.76,55.01
2021-01-05 15:00:56,,,72.39,122.04,49.65
2021-01-05 16:00:56,,,63.97,107.53,43.56
2021-01-05 17:00:56,,,67.52,111.13,43.61
2021-01-05 18:00:56,,,86.33,150.0,63.67
2021-01-05 19:00:56,,,99.39,183.96,84.57
2021-01-05 20:00:56,,,98.85,185.94,87.09
2021-01-05 21:00:56,,,90.74,170.38,79.64
2021-01-05 22:00:56,,,83.45,156.13,72.68
2021-01-05 23:00:56,,,70.55,132.42,61.87
2021-01-06 00:00:56,,,70.09,133.5,63.41
2021-01-06 01:00:56,,,59.08,110.91,51.83
2021-01-06 02:00:56,,,52.55,97.17,44.62
2021-01-06 03:00:56,,,49.07,90.44,41.37
2021-01-06 04:00:56,,,48.03,89.87,41.84
2021-01-06 05:00:56,,,43.33,80.82,37.49
2021-01-06 06:00:56,,,41.47,76.58,35.11
2021-01-06 07:00:56,,,45.75,83.38,37.63
2021-01-06 08:00:56,,,49.59,89.14,39.55
2021-01-06 09:00:56,,,59.95,112.15,52.2
2021-01-06 10:00:56,,,63.98,119.04,55.06
2021-01-06 11:00:56,,,68.6,126.75,58.15
2021-01-06 12:00:56,,,78.6,148.82,70.22
2021-01-06 13:00:56,,,72.26,138.11,65.85
2021-01-06 14:00:56,,,72.66,135.75,63.09
2021-01-06 15:00:56,,,68.66,126.42,57.76
2021-01-06 16:00:56,,,65.27,118.0,52.73
2021-01-06 17:00:56,,,66.34,115.02,48.68
2021-01-06 18:00:56,,,87.62,158.24,70.62
2021-01-06 19:00:56,,,121.49,243.93,122.44
2021-01-06 20:00:56,,,152.64,333.44,180.8
2021-01-06 21:00:56,,,128.73,282.33,153.6
2021-01-06 22:00:56,,,103.65,220.86,117.21
2021-01-06 23:00:56,,,83.01,171.42,88.41
2021-01-07 00:00:56,,,71.42,140.73,69.31
2021-01-07 01:00:56,,,59.76,113.44,53.68
2021-01-07 02:00:56,,,56.94,103.37,46.43
2021-01-07 03:00:56,,,48.33,86.12,37.79
2021-01-07 04:00:56,,,42.88,73.76,30.88
2021-01-07 05:00:56,,,41.1,68.95,27.85
2021-01-07 06:00:56,,,39.47,65.17,25.7
2021-01-07 07:00:56,,,39.94,63.42,23.48
2021-01-07 08:00:56,,,50.75,87.42,36.67
2021-01-07 09:00:56,,,62.91,117.31,54.4
2021-01-07 10:00:56,,,60.74,109.06,48.32
2021-01-07 11:00:56,,,80.41,150.11,69.7
2021-01-07 12:00:56,,,89.94,167.75,77.81
2021-01-07 13:00:56,,,89.28,164.33,75.05
2021-01-07 14:00:56,,,75.3,137.08,61.78
2021-01-07 15:00:56,,,31.43,47.76,16.33
2021-01-07 16:00:56,,,34.06,47.4,13.34
2021-01-07 17:00:56,,,44.35,64.84,20.49
2021-01-07 18:00:56,,,64.75,103.41,38.66
2021-01-07 19:00:56,,,82.92,145.53,62.61
2021-01-07 20:00:56,,,89.12,165.24,76.12
2021-01-07 21:00:56,,,85.11,159.7,74.59
2021-01-07 22:00:56,,,80.55,151.32,70.77
2021-01-07 23:00:56,,,67.35,124.08,56.73
2021-01-08 00:00:56,,,62.62,112.38,49.76
2021-01-08 01:00:56,,,54.17,93.19,39.02
2021-01-08 02:00:56,,,47.53,79.45,31.92
2021-01-08 03:00:56,,,47.41,79.84,32.43
2021-01-08 04:00:56,,,42.71,71.88,29.17
2021-01-08 05:00:56,,,37.33,60.97,23.64
2021-01-08 06:00:56,,,37.85,59.31,21.46
2021-01-08 07:00:56,,,43.35,67.51,24.16
2021-01-08 08:00:56,,,56.2,96.19,39.99
2021-01-08 09:00:56,,,74.88,144.68,69.8
2021-01-08 10:00:56,,,75.89,149.53,73.64
2021-01-08 11:00:56,,,73.83,141.51,67.68
2021-01-08 12:00:56,,,67.68,126.13,58.45
2021-01-08 13:00:56,,,65.29,115.74,50.45
2021-01-08 14:00:56,,,61.22,104.0,42.78
2021-01-08 15:00:56,,,61.82,101.97,40.15
2021-01-08 16:00:56,,,62.82,102.36,39.54
2021-01-08 17:00:56,,,63.51,103.4,39.89
2021-01-08 18:00:56,,,62.8,101.08,38.28
2021-01-08 19:00:56,,,78.91,136.82,57.91
2021-01-08 20:00:56,,,93.05,170.88,77.83
2021-01-08 21:00:56,,,87.35,160.93,73.58
2021-01-08 22:00:56,,,79.57,144.31,64.74
2021-01-08 23:00:56,,,68.43,122.06,53.63
2021-01-09 00:00:56,,,60.41,105.02,44.61
2021-01-09 01:00:56,,,57.8,96.92,39.12
2021-01-09 02:00:56,,,52.34,86.12,33.78
2021-01-09 03:00:56,,,48.35,77.73,29.38
2021-01-09 04:00:56,,,44.04,69.39,25.35
2021-01-09 05:00:56,,,40.17,61.96,21.79
2021-01-09 06:00:56,,,37.75,56.85,19.1
2021-01-09 07:00:56,,,38.52,57.95,19.43
2021-01-09 08:00:56,,,41.44,64.33,22.89
2021-01-09 09:00:56,,,57.03,100.73,43.7
2021-01-09 10:00:56,,,71.72,136.8,65.08
2021-01-09 11:00:56,,,75.51,138.57,63.06
2021-01-09 12:00:56,,,77.13,140.36,63.23
2021-01-09 13:00:56,,,65.4,116.42,51.02
2021-01-09 14:00:56,,,56.47,97.71,41.24
2021-01-09 15:00:56,,,52.96,88.02,35.06
2021-01-09 16:00:56,,,50.53,81.2,30.67
2021-01-09 17:00:56,,,48.5,75.76,27.26
2021-01-09 18:00:56,,,47.98,71.93,23.95
2021-01-09 19:00:56,,,52.98,77.85,24.87
2021-01-09 20:00:56,,,52.68,78.2,25.52
2021-01-09 21:00:56,,,48.66,71.63,22.97
2021-01-09 22:00:56,,,47.65,69.74,22.09
2021-01-09 23:00:56,,,49.22,72.21,22.99
2021-01-10 00:00:56,,,49.25,72.45,23.2
2021-01-10 01:00:56,,,48.39,71.9,23.51
2021-01-10 02:00:56,,,47.41,69.79,22.38
2021-01-10 03:00:56,,,46.78,69.13,22.35
2021-01-10 04:00:56,,,45.38,67.76,22.38
2021-01-10 05:00:56,,,42.79,64.75,21.96
2021-01-10 06:00:56,,,44.75,68.37,23.62
2021-01-10 07:00:56,,,44.23,67.78,23.55
2021-01-10 08:00:56,,,46.29,72.96,26.67
2021-01-10 09:00:56,,,48.15,80.49,32.34
2021-01-10 10:00:56,,,45.77,78.12,32.35
2021-01-10 11:00:56,,,44.25,73.24,28.99
2021-01-10 12:00:56,,,45.35,72.68,27.33
2021-01-10 13:00:56,,,43.82,68.32,24.5
2021-01-10 14:00:56,,,42.67,64.45,21.78
2021-01-10 15:00:56,,,43.67,64.52,20.85
2021-01-10 16:00:56,,,42.83,62.5,19.67
2021-01-10 17:00:56,,,42.38,61.17,18.79
2021-01-10 18:00:56,,,45.05,64.68,19.63
2021-01-10 19:00:56,,,52.74,76.57,23.83
2021-01-10 20:00:56,,,55.79,84.46,28.67
2021-01-10 21:00:56,,,52.76,83.14,30.38
2021-01-10 22:00:56,,,50.31,80.64,30.33
2021-01-10 23:00:56,,,47.04,75.97,28.93
2021-01-11 00:00:56,,,46.38,75.22,28.84
2021-01-11 01:00:56,,,42.51,68.61,26.1
2021-01-11 02:00:56,,,41.43,65.64,24.21
2021-01-11 03:00:56,,,43.13,67.99,24.86
2021-01-11 04:00:56,,,42.38,67.56,25.18
2021-01-11 05:00:56,,,38.93,63.16,24.23
2021-01-11 06:00:56,,,40.47,66.67,26.2
2021-01-11 07:00:56,,,49.25,86.22,36.97
2021-01-11 08:00:56,,,54.76,100.3,45.54
2021-01-11 09:00:56,,,62.68,118.82,56.14
2021-01-11 10:00:56,,,85.12,167.62,82.5
2021-01-11 11:00:56,,,92.34,182.72,90.38
2021-01-11 12:00:56,,,87.1,169.08,81.98
2021-01-11 13:00:56,,,82.91,156.84,73.93
2021-01-11 14:00:56,,,75.56,141.09,65.53
2021-01-11 15:00:56,,,72.48,130.45,57.97
2021-01-11 16:00:56,,,71.97,130.74,58.77
2021-01-11 17:00:56,,,73.76,137.31,63.55
2021-01-11 18:00:56,,,87.58,169.93,82.35
2021-01-11 19:00:56,,,78.48,154.44,75.96
2021-01-11 20:00:56,,,81.65,162.17,80.52
2021-01-11 21:00:56,,,86.68,177.59,90.91
2021-01-11 22:00:56,,,80.02,166.25,86.23
2021-01-11 23:00:56,,,69.01,144.0,74.99
2021-01-12 00:00:56,,,68.46,143.99,75.53
2021-01-12 01:00:56,,,72.44,157.77,85.33
2021-01-12 02:00:56,,,65.84,139.68,73.84
2021-01-12 03:00:56,,,57.38,118.65,61.27
2021-01-12 04:00:56,,,51.36,103.58,52.22
2021-01-12 05:00:56,,,50.48,98.36,47.88
2021-01-12 06:00:56,,,51.29,97.54,46.25
2021-01-12 07:00:56,,,50.62,95.74,45.12
2021-01-12 08:00:56,,,52.86,99.45,46.59
2021-01-12 09:00:56,,,71.73,144.61,72.88
2021-01-12 10:00:56,,,93.61,196.74,103.13
2021-01-12 11:00:56,,,118.31,252.44,134.13
2021-01-12 12:00:56,,,103.61,219.98,116.37
2021-01-12 13:00:56,,,92.43,193.97,101.54
2021-01-12 14:00:56,,,75.84,154.98,79.14
2021-01-12 15:00:56,,,62.24,118.81,56.57
2021-01-12 16:00:56,,,54.18,96.32,42.14
2021-01-12 17:00:56,,,51.36,87.37,36.01
2021-01-12 18:00:56,,,50.5,82.34,31.84
2021-01-12 19:00:56,,,49.21,79.63,30.42
2021-01-12 20:00:56,,,46.75,73.96,27.21
2021-01-12 21:00:56,,,42.5,63.26,20.76
2021-01-12 22:00:56,,,38.52,54.36,15.84
2021-01-12 23:00:56,,,35.14,47.75,12.61
2021-01-13 00:00:56,,,30.67,39.54,8.87
2021-01-13 01:00:56,,,26.73,34.1,7.37
2021-01-13 02:00:56,,,29.67,38.28,8.61
2021-01-13 03:00:56,,,32.2,41.46,9.26
2021-01-13 04:00:56,,,33.05,41.88,8.83
2021-01-13 05:00:56,,,32.52,40.67,8.15
2021-01-13 06:00:56,,,32.67,40.83,8.16
2021-01-13 07:00:56,,,33.74,42.42,8.68
2021-01-13 08:00:56,,,34.84,44.09,9.25
2021-01-13 09:00:56,,,34.94,43.92,8.98
2021-01-13 10:00:56,,,32.23,39.96,7.73
2021-01-13 11:00:56,,,27.96,34.79,6.83
2021-01-13 12:00:56,,,25.83,32.49,6.66
2021-01-13 13:00:56,,,25.39,32.3,6.91
2021-01-13 14:00:56,,,22.05,28.19,6.14
2021-01-13 15:00:56,,,20.05,25.9,5.85
2021-01-13 16:00:56,,,20.43,26.46,6.03
2021-01-13 17:00:56,,,26.82,34.95,8.13
2021-01-13 18:00:56,,,31.68,42.86,11.18
2021-01-13 19:00:56,,,38.01,54.57,16.56
2021-01-13 20:00:56,,,38.1,55.75,17.65
2021-01-13 21:00:56,,,37.37,54.5,17.13
2021-01-13 22:00:56,,,36.09,52.78,16.69
2021-01-13 23:00:56,,,35.19,51.66,16.47
2021-01-14 00:00:56,,,34.02,51.92,17.9
2021-01-14 01:00:56,,,31.52,47.8,16.28
2021-01-14 02:00:56,,,31.49,47.73,16.24
2021-01-14 03:00:56,,,30.05,45.52,15.47
2021-01-14 04:00:56,,,29.65,44.78,15.13
2021-01-14 05:00:56,,,28.97,44.59,15.62
2021-01-14 06:00:56,,,29.51,46.21,16.7
2021-01-14 07:00:56,,,31.81,49.44,17.63
2021-01-14 08:00:56,,,40.33,65.18,24.85
2021-01-14 09:00:56,,,50.34,87.58,37.24
2021-01-14 10:00:56,,,57.42,107.87,50.45
2021-01-14 11:00:56,,,56.41,108.42,52.01
2021-01-14 12:00:56,,,57.85,111.2,53.35
2021-01-14 13:00:56,,,40.8,69.86,29.06
2021-01-14 14:00:56,,,34.65,47.52,12.87
2021-01-14 15:00:56,,,34.11,50.43,16.32
2021-01-14 16:00:56,,,32.6,49.15,16.55
2021-01-14 17:00:56,,,34.45,52.05,17.6
2021-01-14 18:00:56,,,34.6,50.33,15.73
2021-01-14 19:00:56,,,38.61,55.89,17.28
2021-01-14 20:00:56,,,38.86,57.07,18.21
2021-01-14 21:00:56,,,37.66,57.63,19.97
2021-01-14 22:00:56,,,35.04,52.92,17.88
2021-01-14 23:00:56,,,31.72,47.18,15.46
2021-01-15 00:00:56,,,29.37,42.92,13.55
2021-01-15 01:00:56,,,27.92,40.44,12.52
2021-01-15 02:00:56,,,29.72,42.8,13.08
2021-01-15 03:00:56,,,27.84,41.13,13.29
2021-01-15 04:00:56,,,27.13,40.24,13.11
2021-01-15 05:00:56,,,26.22,38.79,12.57
2021-01-15 06:00:56,,,27.62,41.01,13.39
2021-01-15 07:00:56,,,29.12,41.42,12.3
2021-01-15 08:00:56,,,35.48,50.78,15.3
2021-01-15 09:00:56,,,45.61,73.55,27.94
2021-01-15 10:00:56,,,56.75,97.38,40.63
2021-01-15 11:00:56,,,64.96,115.33,50.37
2021-01-15 12:00:56,,,67.68,125.13,57.45
2021-01-15 13:00:56,,,62.67,116.57,53.9
2021-01-15 14:00:56,,,49.96,82.47,32.51
2021-01-15 15:00:56,,,42.1,59.02,16.92
2021-01-15 16:00:56,,,35.45,45.83,10.38
2021-01-15 17:00:56,,,32.92,42.81,9.89
2021-01-15 18:00:56,,,34.38,44.25,9.87
2021-01-15 19:00:56,,,38.22,51.93,13.71
2021-01-15 20:00:56,,,38.9,54.78,15.88
2021-01-15 21:00:56,,,40.74,57.91,17.17
2021-01-15 22:00:56,,,37.4,53.18,15.78
2021-01-15 23:00:56,,,33.21,46.75,13.54
2021-01-16 00:00:56,,,34.32,50.83,16.51
2021-01-16 01:00:56,,,32.19,46.35,14.16
2021-01-16 02:00:56,,,30.77,43.27,12.5
2021-01-16 03:00:56,,,29.25,40.79,11.54
2021-01-16 04:00:56,,,27.59,38.43,10.84
2021-01-16 05:00:56,,,27.59,38.41,10.82
2021-01-16 06:00:56,,,28.57,40.22,11.65
2021-01-16 07:00:56,,,28.17,40.14,11.97
2021-01-16 08:00:56,,,28.73,40.92,12.19
2021-01-16 09:00:56,,,30.27,43.5,13.23
2021-01-16 10:00:56,,,33.84,49.03,15.19
2021-01-16 11:00:56,,,35.94,56.3,20.36
2021-01-16 12:00:56,,,34.12,53.94,19.82
2021-01-16 13:00:56,,,34.6,54.89,20.29
2021-01-16 14:00:56,,,37.17,59.63,22.46
2021-01-16 15:00:56,,,38.65,61.51,22.86
2021-01-16 16:00:56,,,41.26,67.12,25.86
2021-01-16 17:00:56,,,41.29,69.21,27.92
2021-01-16 18:00:56,,,42.91,71.68,28.77
2021-01-16 19:00:56,,,48.91,83.5,34.59
2021-01-16 20:00:56,,,52.36,92.91,40.55
2021-01-16 21:00:56,,,49.98,86.84,36.86
2021-01-16 22:00:56,,,52.32,95.19,42.87
2021-01-16 23:00:56,,,49.25,88.28,39.03
2021-01-17 00:00:56,,,44.69,78.13,33.44
2021-01-17 01:00:56,,,41.65,70.21,28.56
2021-01-17 02:00:56,,,37.46,58.95,21.49
2021-01-17 03:00:56,,,32.83,46.63,13.8
2021-01-17 04:00:56,,,29.05,38.64,9.59
2021-01-17 05:00:56,,,26.91,35.76,8.85
2021-01-17 06:00:56,,,25.45,33.63,8.18
2021-01-17 07:00:56,,,26.17,34.89,8.72
2021-01-17 08:00:56,,,27.61,36.86,9.25
2021-01-17 09:00:56,,,28.79,38.18,9.39
2021-01-17 10:00:56,,,29.98,40.35,10.37
2021-01-17 11:00:56,,,30.57,41.1,10.53
2021-01-17 12:00:56,,,31.3,43.66,12.36
2021-01-17 13:00:56,,,30.8,44.46,13.66
2021-01-17 14:00:56,,,31.38,45.57,14.19
2021-01-17 15:00:56,,,32.59,46.92,14.33
2021-01-17 16:00:56,,,33.62,47.53,13.91
2021-01-17 17:00:56,,,33.16,45.58,12.42
2021-01-17 18:00:56,,,32.87,44.73,11.86
2021-01-17 19:00:56,,,31.53,42.9,11.37
2021-01-17 20:00:56,,,30.03,39.88,9.85
2021-01-17 21:00:56,,,29.25,38.47,9.22
2021-01-17 22:00:56,,,28.74,37.6,8.86
2021-01-17 23:00:56,,,28.43,36.84,8.41
2021-01-18 00:00:56,,,27.86,35.99,8.13
2021-01-18 01:00:56,,,26.19,34.02,7.83
2021-01-18 02:00:56,,,25.53,33.05,7.52
2021-01-18 03:00:56,,,24.24,31.34,7.1
2021-01-18 04:00:56,,,23.57,30.49,6.92
2021-01-18 05:00:56,,,22.97,29.86,6.89
2021-01-18 06:00:56,,,22.9,29.53,6.63
2021-01-18 07:00:56,,,23.2,29.67,6.47
2021-01-18 08:00:56,,,23.35,29.75,6.4
2021-01-18 09:00:56,,,27.49,35.52,8.03
2021-01-18 10:00:56,,,36.66,51.17,14.51
2021-01-18 11:00:56,,,39.75,56.12,16.37
2021-01-18 12:00:56,,,41.67,60.03,18.36
2021-01-18 13:00:56,,,44.09,62.94,18.85
2021-01-18 14:00:56,,,46.64,66.56,19.92
2021-01-18 15:00:56,,,46.2,64.57,18.37
2021-01-18 16:00:56,,,45.9,62.98,17.08
2021-01-18 17:00:56,,,45.8,63.52,17.72
2021-01-18 18:00:56,,,47.03,64.22,17.19
2021-01-18 19:00:56,,,46.01,63.15,17.14
2021-01-18 20:00:56,,,42.24,57.23,14.99
2021-01-18 21:00:56,,,38.55,50.35,11.8
2021-01-18 22:00:56,,,36.0,45.9,9.9
2021-01-18 23:00:56,,,37.89,47.58,9.69
2021-01-19 00:00:56,,,35.3,44.41,9.11
2021-01-19 01:00:56,,,35.81,45.58,9.77
2021-01-19 02:00:56,,,33.67,43.14,9.47
2021-01-19 03:00:56,,,29.59,37.7,8.11
2021-01-19 04:00:56,,,26.94,33.83,6.89
2021-01-19 05:00:56,,,26.2,32.96,6.76
2021-01-19 06:00:56,,,26.4,33.2,6.8
2021-01-19 07:00:56,,,27.33,33.56,6.23
2021-01-19 08:00:56,,,29.11,35.72,6.61
2021-01-19 09:00:56,,,33.73,41.72,7.99
2021-01-19 10:00:56,,,37.69,47.73,10.04
2021-01-19 11:00:56,,,39.18,51.26,12.08
2021-01-19 12:00:56,,,39.56,51.93,12.37
2021-01-19 13:00:56,,,36.79,47.7,10.91
2021-01-19 14:00:56,,,36.83,48.71,11.88
2021-01-19 15:00:56,,,38.71,49.85,11.14
2021-01-19 16:00:56,,,36.72,46.64,9.92
2021-01-19 17:00:56,,,38.73,49.38,10.65
2021-01-19 18:00:56,,,40.32,50.41,10.09
2021-01-19 19:00:56,,,41.44,50.89,9.45
2021-01-19 20:00:56,,,39.73,48.58,8.85
2021-01-19 21:00:56,,,36.81,44.68,7.87
2021-01-19 22:00:56,,,32.77,39.79,7.02
2021-01-19 23:00:56,,,29.71,35.65,5.94
2021-01-20 00:00:56,,,29.28,35.38,6.1
2021-01-20 01:00:56,,,26.52,32.0,5.48
2021-01-20 02:00:56,,,25.65,30.67,5.02
2021-01-20 03:00:56,,,24.57,29.5,4.93
2021-01-20 04:00:56,,,24.12,29.02,4.9
2021-01-20 05:00:56,,,22.52,27.2,4.68
2021-01-20 06:00:56,,,22.94,27.88,4.94
2021-01-20 07:00:56,,,23.39,28.62,5.23
2021-01-20 08:00:56,,,25.35,30.81,5.46
2021-01-20 09:00:56,,,33.46,41.7,8.24
2021-01-20 10:00:56,,,36.37,46.44,10.07
2021-01-20 11:00:56,,,34.16,44.63,10.47
2021-01-20 12:00:56,,,33.79,43.63,9.84
2021-01-20 13:00:56,,,32.34,41.2,8.86
2021-01-20 14:00:56,,,32.89,41.46,8.57
2021-01-20 15:00:56,,,38.66,49.82,11.16
2021-01-20 16:00:56,,,39.08,49.74,10.66
2021-01-20 17:00:56,,,38.86,48.94,10.08
2021-01-20 18:00:56,,,44.07,55.56,11.49
2021-01-20 19:00:56,,,47.81,60.59,12.78
2021-01-20 20:00:56,,,49.99,63.59,13.6
2021-01-20 21:00:56,,,45.39,55.05,9.66
2021-01-20 22:00:56,,,45.65,54.25,8.6
2021-01-20 23:00:56,,,44.06,53.5,9.44
2021-01-21 00:00:56,,,39.3,47.41,8.11
2021-01-21 01:00:56,,,35.25,41.78,6.53
2021-01-21 02:00:56,,,35.92,42.68,6.76
2021-01-21 03:00:56,,,33.73,40.06,6.33
2021-01-21 04:00:56,,,32.6,39.12,6.52
2021-01-21 05:00:56,,,34.44,41.28,6.84
2021-01-21 06:00:56,,,37.6,45.39,7.79
2021-01-21 07:00:56,,,38.66,46.7,8.04
2021-01-21 08:00:56,,,40.44,49.69,9.25
2021-01-21 09:00:56,,,54.65,73.11,18.46
2021-01-21 10:00:56,,,55.28,76.69,21.41
2021-01-21 11:00:56,,,56.22,79.91,23.69
2021-01-21 12:00:56,,,53.39,76.01,22.62
2021-01-21 13:00:56,,,54.84,76.51,21.67
2021-01-21 14:00:56,,,58.27,78.55,20.28
2021-01-21 15:00:56,,,58.72,77.41,18.69
2021-01-21 16:00:56,,7.37,61.29,82.02,20.73
2021-01-21 17:00:56,,6.97,61.97,82.64,20.67
2021-01-21 18:00:56,,8.08,62.86,82.75,19.89
2021-01-21 19:00:56,,8.56,68.58,96.19,27.61
2021-01-21 20:00:56,,10.03,82.44,129.47,47.03
2021-01-21 21:00:56,,10.89,77.25,117.36,40.11
2021-01-21 22:00:56,,10.99,76.03,115.82,39.79
2021-01-21 23:00:56,,10.24,68.23,102.13,33.9
2021-01-22 00:00:56,,10.02,60.18,87.11,26.93
2021-01-22 01:00:56,,9.7,55.56,79.92,24.36
2021-01-22 02:00:56,,10.13,,,
2021-01-22 03:00:56,,9.6,49.07,73.69,24.62
2021-01-22 04:00:56,,9.36,47.18,68.3,21.12
2021-01-22 05:00:56,,8.74,44.18,61.95,17.77
2021-01-22 06:00:56,,8.31,42.37,59.72,17.35
2021-01-22 07:00:56,,8.18,43.05,62.81,19.76
2021-01-22 08:00:56,,8.01,48.23,74.14,25.91
2021-01-22 09:00:56,,7.84,52.7,82.18,29.48
2021-01-22 10:00:56,,8.61,62.45,100.43,37.98
2021-01-22 11:00:56,,9.65,73.37,125.64,52.27
2021-01-22 12:00:56,,9.93,74.99,129.43,54.44
2021-01-22 13:00:56,,9.2,66.13,110.52,44.39
2021-01-22 14:00:56,,8.32,57.59,89.97,32.38
2021-01-22 15:00:56,,7.87,54.16,80.98,26.82
2021-01-22 16:00:56,,7.32,53.75,78.01,24.26
2021-01-22 17:00:56,,7.25,56.02,79.63,23.61
2021-01-22 18:00:56,,7.53,64.28,92.24,27.96
2021-01-22 19:00:56,,9.46,97.65,165.61,67.96
2021-01-22 20:00:56,,10.72,107.87,193.89,86.02
2021-01-22 21:00:56,,10.55,93.88,163.98,70.1
2021-01-22 22:00:56,,10.19,78.72,133.44,54.72
2021-01-22 23:00:56,,9.21,61.55,97.92,36.37
2021-01-23 00:00:56,,8.74,51.38,75.42,24.04
2021-01-23 01:00:56,,8.74,45.49,63.06,17.57
2021-01-23 02:00:56,,8.57,43.27,57.07,13.8
2021-01-23 03:00:56,,8.56,43.33,57.52,14.19
2021-01-23 04:00:56,,8.35,41.42,58.15,16.73
2021-01-23 05:00:56,,8.17,40.31,58.14,17.83
2021-01-23 06:00:56,,8.05,39.28,54.8,15.52
2021-01-23 07:00:56,,7.65,37.34,50.1,12.76
2021-01-23 08:00:56,,7.26,39.08,52.65,13.57
2021-01-23 09:00:56,,7.65,53.52,83.41,29.89
2021-01-23 10:00:56,,8.15,54.08,86.41,32.33
2021-01-23 11:00:56,,8.56,55.25,86.56,31.31
2021-01-23 12:00:56,,7.98,50.53,76.55,26.02
2021-01-23 13:00:56,,7.69,45.03,66.9,21.87
2021-01-23 14:00:56,,7.57,42.4,59.32,16.92
2021-01-23 15:00:56,18.0,7.74,41.36,56.17,14.81
2021-01-23 16:00:56,19.0,7.68,40.75,53.87,13.12
2021-01-23 17:00:56,27.0,7.47,42.96,56.21,13.25
2021-01-23 18:00:56,36.0,7.94,48.77,64.05,15.28
2021-01-23 19:00:56,78.0,8.97,63.08,86.5,23.42
2021-01-23 20:00:56,56.0,10.06,75.17,114.67,39.5
2021-01-23 21:00:56,27.0,10.16,70.03,109.38,39.35
2021-01-23 22:00:56,15.0,8.96,57.7,87.05,29.35
2021-01-23 23:00:56,,8.38,51.37,73.44,22.07
2021-01-24 00:00:56,15.0,8.44,47.48,65.05,17.57
2021-01-24 01:00:56,16.0,8.36,42.9,57.41,14.51
2021-01-24 02:00:56,25.0,8.89,44.24,59.4,15.16
2021-01-24 03:00:56,41.0,9.39,44.39,61.41,17.02
2021-01-24 04:00:56,36.0,8.57,40.76,56.68,15.92
2021-01-24 05:00:56,9.0,8.05,39.15,52.78,13.63
2021-01-24 06:00:56,11.0,7.9,41.3,59.38,18.08
2021-01-24 07:00:56,32.0,7.8,39.9,61.81,21.91
2021-01-24 08:00:56,27.0,7.62,39.54,61.74,22.2
2021-01-24 09:00:56,22.0,7.47,37.71,57.28,19.57
2021-01-24 10:00:56,14.0,7.57,37.72,55.3,17.58
2021-01-24 11:00:56,22.0,8.52,39.97,57.94,17.97
2021-01-24 12:00:56,32.0,8.6,40.52,56.91,16.39
2021-01-24 13:00:56,28.0,8.05,41.43,56.06,14.63
2021-01-24 14:00:56,25.0,7.9,41.33,54.55,13.22
2021-01-24 15:00:56,19.0,7.73,41.5,54.35,12.85
2021-01-24 16:00:56,19.0,7.72,42.71,54.92,12.21
2021-01-24 17:00:56,24.0,7.96,44.79,57.47,12.68
2021-01-24 18:00:56,27.0,8.26,48.35,61.62,13.27
2021-01-24 19:00:56,31.0,9.15,57.86,76.44,18.58
2021-01-24 20:00:56,63.0,10.39,65.05,92.11,27.06
2021-01-24 21:00:56,83.0,11.77,69.46,104.26,34.8
2021-01-24 22:00:56,81.0,12.05,69.69,110.36,40.67
2021-01-24 23:00:56,62.0,11.51,70.7,120.99,50.29
2021-01-25 00:00:56,49.0,10.27,57.85,94.14,36.29
2021-01-25 01:00:56,27.0,10.51,55.54,86.74,31.2
2021-01-25 02:00:56,52.0,10.25,50.01,76.29,26.28
2021-01-25 03:00:56,11.0,9.39,45.69,66.3,20.61
2021-01-25 04:00:56,37.0,8.88,44.66,65.35,20.69
2021-01-25 05:00:56,28.0,8.55,43.84,65.34,21.5
2021-01-25 06:00:56,35.0,8.05,39.46,60.36,20.9
2021-01-25 07:00:56,24.0,8.09,38.56,58.5,19.94
2021-01-25 08:00:56,15.0,7.83,42.48,62.02,19.54
2021-01-25 09:00:56,23.0,7.98,53.1,81.86,28.76